Location: Marcé
(47.5801°N, 0.3280°W)
Time: 08:25:38
(UTC+01:00)

BlueWalker 3 - Pass Details

Date: 03 December 2022
Orbit: 499 x 517 km, 53.2° (Epoch: 29 January)

Event Time Altitude Azimuth Distance (km) Brightness Sun altitude
Rises 18:13:10 0° 279° (W) 2,633 6.7 -10.1°
Reaches altitude 10° 18:15:31 10° 289° (WNW) 1,742 5.5 -10.5°
Maximum altitude 18:19:10 35° 356° (N) 839 2.9 -11.0°
Enters shadow 18:21:45 17° 56° (NE) 1,367 3.5 -11.4°
